When you browse on this site, cookies collect data to enhance your experience and personalize the content and advertising you see.
Visit our Privacy Policy to learn more. By continuing to use the site, you agree to this use of cookies and data.

Previsão horária em Yazovo

Hoje, 3 Julho, Sexta-feira

Tempo Temperatura Precipitação Vento Pressão Humidade
00:00 +15°C° 0 mm 1 m/s 735 mmHg 97%
01:00 +15°C° 0 mm 1 m/s 735 mmHg 97%
02:00 +15°C° 0 mm 2 m/s 735 mmHg 98%
03:00 +15°C° 0 mm 2 m/s 735 mmHg 98%
04:00 +16°C° 0 mm 2 m/s 736 mmHg 97%
05:00 +16°C° 0 mm 2 m/s 736 mmHg 96%
06:00 +17°C° 0 mm 2 m/s 736 mmHg 90%
07:00 +19°C° 0 mm 2 m/s 737 mmHg 83%
08:00 +20°C° 0 mm 2 m/s 737 mmHg 77%
09:00 +21°C° 0 mm 2 m/s 737 mmHg 68%
10:00 +23°C° 0 mm 2 m/s 737 mmHg 59%
11:00 +25°C° 0 mm 2 m/s 738 mmHg 49%
12:00 +25°C° 0 mm 2 m/s 738 mmHg 49%
13:00 +25°C° 0 mm 2 m/s 738 mmHg 49%
14:00 +25°C° 0 mm 2 m/s 738 mmHg 49%
15:00 +25°C° 0 mm 2 m/s 737 mmHg 53%
16:00 +25°C° 0 mm 2 m/s 737 mmHg 56%
17:00 +24°C° 0 mm 1 m/s 737 mmHg 59%
18:00 +23°C° 0.1 mm 1 m/s 737 mmHg 67%
19:00 +21°C° 0.1 mm 1 m/s 737 mmHg 75%
20:00 +20°C° 0.1 mm 1 m/s 737 mmHg 83%
21:00 +19°C° 0.2 mm 1 m/s 737 mmHg 87%
22:00 +18°C° 0.2 mm 1 m/s 737 mmHg 91%
23:00 +16°C° 0.2 mm 0 m/s 737 mmHg 95%

Amanhã, 4 Julho, Sábado

Tempo Temperatura Precipitação Vento Pressão Humidade
00:00 +18°C° 0.2 mm 1 m/s 737 mmHg 95%
01:00 +16°C° 0.2 mm 1 m/s 737 mmHg 95%
02:00 +16°C° 0.2 mm 1 m/s 737 mmHg 96%
03:00 +16°C° 0.1 mm 1 m/s 737 mmHg 96%
04:00 +16°C° 0.1 mm 0 m/s 737 mmHg 96%
05:00 +16°C° 0.1 mm 0 m/s 737 mmHg 96%
06:00 +17°C° 0.1 mm 0 m/s 737 mmHg 92%
07:00 +18°C° 0.1 mm 0 m/s 737 mmHg 88%
08:00 +21°C° 0.1 mm 1 m/s 737 mmHg 84%
09:00 +23°C° 0.2 mm 1 m/s 737 mmHg 76%
10:00 +24°C° 0.2 mm 1 m/s 737 mmHg 69%
11:00 +26°C° 0.2 mm 1 m/s 737 mmHg 61%
12:00 +26°C° 0.1 mm 1 m/s 737 mmHg 57%
13:00 +27°C° 0.1 mm 2 m/s 737 mmHg 53%
14:00 +27°C° 0.1 mm 2 m/s 737 mmHg 48%
15:00 +27°C° 0 mm 2 m/s 737 mmHg 50%
16:00 +27°C° 0 mm 2 m/s 737 mmHg 51%
17:00 +26°C° 0 mm 2 m/s 736 mmHg 53%
18:00 +25°C° 0 mm 2 m/s 736 mmHg 61%
19:00 +23°C° 0 mm 2 m/s 736 mmHg 68%
20:00 +21°C° 0 mm 1 m/s 736 mmHg 76%
21:00 +20°C° 0 mm 1 m/s 736 mmHg 79%
22:00 +19°C° 0 mm 1 m/s 736 mmHg 81%
23:00 +16°C° 0 mm 1 m/s 736 mmHg 84%

Depois de amanhã, 5 Julho, Domingo

Tempo Temperatura Precipitação Vento Pressão Humidade
00:00 +16°C° 0 mm 1 m/s 737 mmHg 86%
01:00 +15°C° 0 mm 1 m/s 737 mmHg 88%
02:00 +15°C° 0 mm 1 m/s 737 mmHg 90%
03:00 +15°C° 0 mm 1 m/s 737 mmHg 88%
04:00 +16°C° 0 mm 1 m/s 737 mmHg 86%
05:00 +16°C° 0 mm 1 m/s 737 mmHg 84%
06:00 +19°C° 0 mm 1 m/s 737 mmHg 77%
07:00 +20°C° 0 mm 2 m/s 737 mmHg 69%
08:00 +23°C° 0 mm 2 m/s 737 mmHg 62%
09:00 +22°C° 0 mm 3 m/s 737 mmHg 59%
10:00 +24°C° 0 mm 3 m/s 737 mmHg 56%
11:00 +25°C° 0 mm 4 m/s 737 mmHg 54%
12:00 +23°C° 0.1 mm 4 m/s 736 mmHg 57%
13:00 +24°C° 0.1 mm 3 m/s 736 mmHg 60%
14:00 +24°C° 0.1 mm 3 m/s 736 mmHg 63%
15:00 +24°C° 0.1 mm 3 m/s 736 mmHg 63%
16:00 +24°C° 0.1 mm 3 m/s 736 mmHg 63%
17:00 +24°C° 0.1 mm 2 m/s 736 mmHg 63%
18:00 +23°C° 0.3 mm 2 m/s 735 mmHg 73%
19:00 +20°C° 0.3 mm 2 m/s 735 mmHg 83%
20:00 +19°C° 0.3 mm 2 m/s 735 mmHg 93%
21:00 +18°C° 0 mm 2 m/s 735 mmHg 94%
22:00 +17°C° 0 mm 2 m/s 735 mmHg 95%
23:00 +17°C° 0 mm 2 m/s 735 mmHg 97%

6 Julho, Segunda-feira

Tempo Temperatura Precipitação Vento Pressão Humidade
00:00 +16°C° 0 mm 2 m/s 735 mmHg 97%
01:00 +16°C° 0 mm 2 m/s 735 mmHg 97%
02:00 +16°C° 0 mm 2 m/s 734 mmHg 97%
03:00 +16°C° 0 mm 2 m/s 734 mmHg 97%
04:00 +16°C° 0 mm 3 m/s 734 mmHg 96%
05:00 +17°C° 0 mm 3 m/s 734 mmHg 96%
06:00 +18°C° 0 mm 3 m/s 734 mmHg 88%
07:00 +20°C° 0 mm 4 m/s 734 mmHg 81%
08:00 +22°C° 0 mm 4 m/s 734 mmHg 73%
09:00 +23°C° 0 mm 4 m/s 734 mmHg 70%
10:00 +23°C° 0 mm 5 m/s 734 mmHg 67%
11:00 +25°C° 0 mm 5 m/s 734 mmHg 64%
12:00 +25°C° 0.2 mm 4 m/s 734 mmHg 65%
13:00 +25°C° 0.2 mm 4 m/s 733 mmHg 67%
14:00 +25°C° 0.2 mm 4 m/s 733 mmHg 68%
15:00 +25°C° 0.1 mm 4 m/s 733 mmHg 69%
16:00 +25°C° 0.1 mm 4 m/s 733 mmHg 69%
17:00 +25°C° 0.1 mm 4 m/s 733 mmHg 70%
18:00 +23°C° 0.2 mm 4 m/s 733 mmHg 76%
19:00 +22°C° 0.2 mm 3 m/s 733 mmHg 81%
20:00 +21°C° 0.2 mm 3 m/s 733 mmHg 87%
21:00 +20°C° 0 mm 3 m/s 733 mmHg 89%
22:00 +20°C° 0 mm 3 m/s 733 mmHg 91%
23:00 +19°C° 0 mm 3 m/s 733 mmHg 93%

7 Julho, Terça-feira

Tempo Temperatura Precipitação Vento Pressão Humidade
00:00 +19°C° 0 mm 3 m/s 733 mmHg 94%
01:00 +19°C° 0 mm 2 m/s 733 mmHg 95%
02:00 +19°C° 0 mm 2 m/s 733 mmHg 96%
03:00 +19°C° 0.1 mm 2 m/s 733 mmHg 96%
04:00 +19°C° 0.1 mm 2 m/s 733 mmHg 96%
05:00 +20°C° 0.1 mm 1 m/s 733 mmHg 96%
06:00 +20°C° 0.2 mm 1 m/s 734 mmHg 94%
07:00 +20°C° 0.2 mm 1 m/s 734 mmHg 92%
08:00 +20°C° 0.2 mm 1 m/s 734 mmHg 90%
09:00 +21°C° 0.1 mm 1 m/s 734 mmHg 83%
10:00 +21°C° 0.1 mm 1 m/s 734 mmHg 75%
11:00 +22°C° 0.1 mm 1 m/s 734 mmHg 68%
12:00 +23°C° 0 mm 2 m/s 734 mmHg 62%
13:00 +24°C° 0 mm 2 m/s 734 mmHg 55%
14:00 +25°C° 0 mm 2 m/s 734 mmHg 48%
15:00 +23°C° 0.1 mm 2 m/s 734 mmHg 53%
16:00 +21°C° 0.1 mm 2 m/s 734 mmHg 58%
17:00 +20°C° 0.1 mm 2 m/s 734 mmHg 63%
18:00 +20°C° 0 mm 1 m/s 734 mmHg 66%
19:00 +20°C° 0 mm 1 m/s 734 mmHg 68%
20:00 +19°C° 0 mm 1 m/s 735 mmHg 71%
21:00 +18°C° 0 mm 1 m/s 735 mmHg 72%
22:00 +16°C° 0 mm 1 m/s 735 mmHg 73%
23:00 +16°C° 0 mm 1 m/s 735 mmHg 75%

8 Julho, Quarta-feira

Tempo Temperatura Precipitação Vento Pressão Humidade
00:00 +15°C° 0 mm 1 m/s 735 mmHg 76%
01:00 +15°C° 0 mm 1 m/s 735 mmHg 78%
02:00 +14°C° 0 mm 1 m/s 735 mmHg 80%
03:00 +14°C° 0 mm 1 m/s 736 mmHg 80%
04:00 +14°C° 0 mm 2 m/s 736 mmHg 81%
05:00 +13°C° 0 mm 2 m/s 736 mmHg 82%
06:00 +15°C° 0 mm 2 m/s 736 mmHg 74%
07:00 +16°C° 0 mm 2 m/s 736 mmHg 66%
08:00 +17°C° 0 mm 2 m/s 736 mmHg 58%
09:00 +18°C° 0 mm 2 m/s 736 mmHg 52%
10:00 +19°C° 0 mm 2 m/s 737 mmHg 46%
11:00 +21°C° 0 mm 2 m/s 737 mmHg 41%
12:00 +21°C° 0 mm 2 m/s 737 mmHg 39%
13:00 +23°C° 0 mm 2 m/s 737 mmHg 38%
14:00 +23°C° 0 mm 2 m/s 736 mmHg 36%
15:00 +23°C° 0 mm 2 m/s 736 mmHg 38%
16:00 +23°C° 0 mm 2 m/s 736 mmHg 41%
17:00 +21°C° 0 mm 2 m/s 736 mmHg 43%
18:00 +20°C° 0 mm 2 m/s 736 mmHg 51%
19:00 +19°C° 0 mm 1 m/s 736 mmHg 60%
20:00 +16°C° 0 mm 1 m/s 736 mmHg 68%
21:00 +15°C° 0 mm 1 m/s 737 mmHg 71%
22:00 +14°C° 0 mm 1 m/s 737 mmHg 74%
23:00 +13°C° 0 mm 1 m/s 737 mmHg 77%
Mostrar mais